Time,TemperatureF,DewpointF,PressureIn,WindDirection,WindDirectionDegrees,WindSpeedMPH,WindSpeedGustMPH,Humidity,HourlyPrecipIn,Conditions,Clouds,dailyrainin,SoftwareType,DateUTC
2013-04-07 00:00:00,55.9,45.9,30.22,East,98,0.0,0.0,69,0.00,,---,0.01,VWS V14.01,2013-04-07 04:00:00,
2013-04-07 00:30:00,55.4,46.2,30.23,ESE,109,0.0,0.0,71,0.00,,---,0.01,VWS V14.01,2013-04-07 04:30:00,
2013-04-07 01:00:00,55.3,46.1,30.24,North,0,0.0,0.0,71,0.00,,---,0.01,VWS V14.01,2013-04-07 05:00:00,
2013-04-07 01:30:00,55.1,46.2,30.24,North,0,0.0,0.0,72,0.00,,---,0.01,VWS V14.01,2013-04-07 05:30:00,
2013-04-07 02:00:00,55.0,46.9,30.24,North,0,0.0,0.0,74,0.00,,---,0.01,VWS V14.01,2013-04-07 06:00:00,
2013-04-07 02:30:00,54.8,47.4,30.23,North,0,0.0,0.0,76,0.00,,---,0.01,VWS V14.01,2013-04-07 06:30:00,
2013-04-07 03:00:00,54.6,47.5,30.23,North,0,0.0,0.0,77,0.00,,---,0.00,VWS V14.01,2013-04-07 07:00:00,
2013-04-07 03:30:00,54.5,47.5,30.23,North,0,0.0,0.0,77,0.00,,---,0.00,VWS V14.01,2013-04-07 07:30:00,
2013-04-07 04:00:00,54.3,47.2,30.22,North,0,0.0,0.0,77,0.00,,---,0.00,VWS V14.01,2013-04-07 08:00:00,
2013-04-07 04:30:00,54.1,47.1,30.21,North,0,0.0,0.0,77,0.00,,---,0.00,VWS V14.01,2013-04-07 08:30:00,
2013-04-07 05:00:00,53.9,46.9,30.20,North,0,0.0,0.0,77,0.00,,---,0.00,VWS V14.01,2013-04-07 09:00:00,
2013-04-07 05:30:00,53.7,46.7,30.19,North,0,0.0,0.0,77,0.00,,---,0.00,VWS V14.01,2013-04-07 09:30:00,
2013-04-07 06:00:00,53.6,46.6,30.18,North,0,0.0,0.0,77,0.00,,---,0.00,VWS V14.01,2013-04-07 10:00:00,
2013-04-07 06:30:00,53.5,46.8,30.18,North,0,0.0,0.0,78,0.00,,---,0.00,VWS V14.01,2013-04-07 10:30:00,
2013-04-07 07:00:00,53.5,46.8,30.18,North,0,0.0,0.0,78,0.00,,---,0.00,VWS V14.01,2013-04-07 11:00:00,
2013-04-07 07:30:00,53.6,46.9,30.19,North,0,0.0,0.0,78,0.00,,---,0.00,VWS V14.01,2013-04-07 11:30:00,
2013-04-07 08:00:00,53.6,47.3,30.18,North,0,0.0,0.0,79,0.00,,---,0.00,VWS V14.01,2013-04-07 12:00:00,
2013-04-07 08:30:00,53.6,47.3,30.18,North,0,0.0,0.0,79,0.00,,---,0.00,VWS V14.01,2013-04-07 12:30:00,
2013-04-07 09:00:00,53.8,47.8,30.19,North,0,0.0,0.0,80,0.00,,---,0.00,VWS V14.01,2013-04-07 13:00:00,
2013-04-07 09:30:00,53.7,47.7,30.19,North,0,0.0,0.0,80,0.00,,---,0.00,VWS V14.01,2013-04-07 13:30:00,
2013-04-07 10:00:00,53.8,47.8,30.20,North,0,0.0,0.0,80,0.00,,---,0.00,VWS V14.01,2013-04-07 14:00:00,
2013-04-07 10:25:00,56.6,49.5,30.24,North,0,0.0,0.0,77,0.00,,---,0.00,VWS V14.01,2013-04-07 14:25:00,
2013-04-07 10:30:00,56.8,49.7,30.25,East,85,0.0,0.0,77,0.00,,---,0.00,VWS V14.01,2013-04-07 14:30:00,
2013-04-07 10:35:00,56.8,49.7,30.25,ENE,72,0.0,0.0,77,0.00,,---,0.00,VWS V14.01,2013-04-07 14:35:00,
2013-04-07 10:40:00,56.7,49.6,30.25,ENE,63,0.0,0.0,77,0.00,,---,0.00,VWS V14.01,2013-04-07 14:40:00,
2013-04-07 10:45:00,57.1,50.0,30.25,NE,52,0.0,0.0,77,0.00,,---,0.00,VWS V14.01,2013-04-07 14:45:00,
2013-04-07 10:50:00,57.0,49.9,30.25,ENE,66,0.0,0.0,77,0.00,,---,0.00,VWS V14.01,2013-04-07 14:50:00,
2013-04-07 10:55:00,57.1,50.0,30.25,NE,53,0.0,0.0,77,0.00,,---,0.00,VWS V14.01,2013-04-07 14:55:00,
2013-04-07 11:00:00,57.2,50.1,30.25,ENE,76,0.0,0.0,77,0.00,,---,0.00,VWS V14.01,2013-04-07 15:00:00,
2013-04-07 11:05:00,57.5,50.4,30.25,ENE,63,0.0,0.0,77,0.00,,---,0.00,VWS V14.01,2013-04-07 15:05:00,
2013-04-07 11:10:00,57.7,50.2,30.25,NE,51,0.0,0.0,76,0.00,,---,0.00,VWS V14.01,2013-04-07 15:10:00,
2013-04-07 11:15:00,57.5,50.4,30.25,ENE,69,0.0,0.0,77,0.00,,---,0.00,VWS V14.01,2013-04-07 15:15:00,
2013-04-07 11:20:00,57.8,50.3,30.25,NE,40,0.0,0.0,76,0.00,,---,0.00,VWS V14.01,2013-04-07 15:20:00,
2013-04-07 11:25:00,57.7,50.2,30.25,NE,45,0.0,0.0,76,0.00,,---,0.00,VWS V14.01,2013-04-07 15:25:00,
2013-04-07 11:30:00,57.9,50.4,30.25,NE,46,0.0,0.0,76,0.00,,---,0.00,VWS V14.01,2013-04-07 15:30:00,
2013-04-07 11:35:00,57.8,50.3,30.25,NE,51,0.0,0.0,76,0.00,,---,0.00,VWS V14.01,2013-04-07 15:35:00,
2013-04-07 11:40:00,57.8,50.3,30.25,ENE,70,0.0,0.0,76,0.00,,---,0.00,VWS V14.01,2013-04-07 15:40:00,
2013-04-07 11:45:00,58.1,50.6,30.25,ENE,60,0.0,0.0,76,0.00,,---,0.00,VWS V14.01,2013-04-07 15:45:00,
2013-04-07 11:51:00,58.1,50.6,30.25,ENE,67,0.0,0.0,76,0.00,,---,0.00,VWS V14.01,2013-04-07 15:51:00,
2013-04-07 12:00:00,56.2,49.1,30.24,North,0,0.0,0.0,77,0.00,,---,0.00,VWS V14.01,2013-04-07 16:00:00,
2013-04-07 12:30:00,56.6,49.5,30.24,North,0,0.0,0.0,77,0.00,,---,0.00,VWS V14.01,2013-04-07 16:30:00,
2013-04-07 12:47:00,58.0,50.5,30.25,North,0,0.0,0.0,76,0.00,,---,0.00,VWS V14.01,2013-04-07 16:47:00,
2013-04-07 12:52:00,58.3,50.4,30.23,East,90,0.0,0.0,75,0.00,,---,0.00,VWS V14.01,2013-04-07 16:52:00,
2013-04-07 12:57:00,58.1,50.6,30.23,ENE,76,0.0,0.0,76,0.00,,---,0.00,VWS V14.01,2013-04-07 16:57:00,
2013-04-07 13:00:00,58.1,50.6,30.22,East,84,0.0,0.0,76,0.00,,---,0.00,VWS V14.01,2013-04-07 17:00:00,
2013-04-07 13:02:00,58.1,50.6,30.22,ESE,116,0.0,0.0,76,0.00,,---,0.00,VWS V14.01,2013-04-07 17:02:00,
2013-04-07 13:07:00,58.5,51.0,30.22,East,85,0.0,0.0,76,0.00,,---,0.00,VWS V14.01,2013-04-07 17:07:00,
2013-04-07 13:12:00,58.5,51.0,30.22,East,80,0.0,0.0,76,0.00,,---,0.00,VWS V14.01,2013-04-07 17:12:00,
2013-04-07 13:17:00,58.9,51.4,30.22,East,84,0.0,0.0,76,0.00,,---,0.00,VWS V14.01,2013-04-07 17:17:00,
2013-04-07 13:22:00,59.1,51.5,30.22,East,98,0.0,0.0,76,0.00,,---,0.00,VWS V14.01,2013-04-07 17:22:00,
2013-04-07 13:27:00,59.2,51.3,30.22,ESE,108,0.0,0.0,75,0.00,,---,0.00,VWS V14.01,2013-04-07 17:27:00,
2013-04-07 13:30:00,56.8,49.7,30.25,East,85,0.0,0.0,77,0.00,,---,0.00,VWS V14.01,2013-04-07 17:30:00,
2013-04-07 13:32:00,59.3,51.8,30.22,NE,55,0.0,0.0,76,0.00,,---,0.00,VWS V14.01,2013-04-07 17:32:00,
2013-04-07 13:37:00,59.4,51.5,30.22,ESE,105,0.0,0.0,75,0.00,,---,0.00,VWS V14.01,2013-04-07 17:37:00,
2013-04-07 13:42:00,59.2,51.7,30.22,East,80,0.0,0.0,76,0.00,,---,0.00,VWS V14.01,2013-04-07 17:42:00,
2013-04-07 13:47:00,59.3,51.8,30.21,ESE,113,0.0,0.0,76,0.00,,---,0.00,VWS V14.01,2013-04-07 17:47:00,
2013-04-07 13:52:00,59.0,51.1,30.21,ESE,111,0.0,0.0,75,0.00,,---,0.00,VWS V14.01,2013-04-07 17:52:00,
2013-04-07 13:57:00,59.1,51.2,30.21,ESE,102,0.0,0.0,75,0.00,,---,0.00,VWS V14.01,2013-04-07 17:57:00,
2013-04-07 14:00:00,57.2,50.1,30.25,ENE,76,0.0,0.0,77,0.00,,---,0.00,VWS V14.01,2013-04-07 18:00:00,
2013-04-07 14:02:00,59.4,51.8,30.20,ESE,112,0.0,0.0,76,0.00,,---,0.00,VWS V14.01,2013-04-07 18:02:00,
2013-04-07 14:07:00,59.5,51.9,30.20,ESE,114,0.0,0.0,76,0.00,,---,0.00,VWS V14.01,2013-04-07 18:07:00,
2013-04-07 14:15:00,59.2,51.3,30.20,ESE,113,0.0,0.0,75,0.00,,---,0.00,VWS V14.01,2013-04-07 18:15:00,
2013-04-07 14:20:00,59.2,51.3,30.20,ESE,110,0.0,0.0,75,0.00,,---,0.00,VWS V14.01,2013-04-07 18:20:00,
2013-04-07 14:25:00,59.1,51.5,30.19,SE,126,0.0,0.0,76,0.00,,---,0.00,VWS V14.01,2013-04-07 18:25:00,
2013-04-07 14:30:00,59.4,51.8,30.19,ESE,118,0.0,0.0,76,0.00,,---,0.00,VWS V14.01,2013-04-07 18:30:00,
2013-04-07 14:35:00,59.5,51.9,30.19,ESE,105,0.0,0.0,76,0.00,,---,0.00,VWS V14.01,2013-04-07 18:35:00,
2013-04-07 14:40:00,59.5,51.9,30.19,East,97,0.0,0.0,76,0.00,,---,0.00,VWS V14.01,2013-04-07 18:40:00,
2013-04-07 14:45:00,59.5,51.6,30.19,East,91,0.0,0.0,75,0.00,,---,0.00,VWS V14.01,2013-04-07 18:45:00,
2013-04-07 14:50:00,59.9,52.7,30.18,East,101,0.0,0.0,77,0.00,,---,0.00,VWS V14.01,2013-04-07 18:50:00,
2013-04-07 14:55:00,60.2,52.3,30.18,East,81,0.0,0.0,75,0.00,,---,0.00,VWS V14.01,2013-04-07 18:55:00,
2013-04-07 15:00:00,60.4,52.8,30.18,SE,126,0.0,0.0,76,0.00,,---,0.00,VWS V14.01,2013-04-07 19:00:00,
2013-04-07 15:05:00,60.4,52.8,30.18,SE,126,0.0,0.0,76,0.00,,---,0.00,VWS V14.01,2013-04-07 19:05:00,
2013-04-07 15:10:00,60.4,52.8,30.18,SE,126,0.0,0.0,76,0.00,,---,0.00,VWS V14.01,2013-04-07 19:10:00,
2013-04-07 15:15:00,60.4,52.8,30.18,SE,126,0.0,0.0,76,0.00,,---,0.00,VWS V14.01,2013-04-07 19:15:00,
2013-04-07 15:20:00,60.4,52.8,30.18,SE,126,0.0,0.0,76,0.00,,---,0.00,VWS V14.01,2013-04-07 19:20:00,
2013-04-07 15:25:00,60.4,52.8,30.18,SE,126,0.0,0.0,76,0.00,,---,0.00,VWS V14.01,2013-04-07 19:25:00,
2013-04-07 15:30:00,60.0,52.1,30.18,ESE,109,0.0,0.0,75,0.00,,---,0.00,VWS V14.01,2013-04-07 19:30:00,
2013-04-07 15:35:00,59.8,51.9,30.17,ESE,115,0.0,0.0,75,0.00,,---,0.00,VWS V14.01,2013-04-07 19:35:00,
2013-04-07 15:40:00,59.6,52.0,30.17,SE,127,0.0,0.0,76,0.00,,---,0.00,VWS V14.01,2013-04-07 19:40:00,
2013-04-07 15:45:00,60.2,53.0,30.17,East,88,0.0,0.0,77,0.00,,---,0.00,VWS V14.01,2013-04-07 19:45:00,
2013-04-07 16:00:00,58.1,50.6,30.22,East,84,0.0,0.0,76,0.00,,---,0.00,VWS V14.01,2013-04-07 20:00:00,
2013-04-07 16:14:00,61.1,52.8,30.16,East,101,0.0,0.0,74,0.00,,---,0.00,VWS V14.01,2013-04-07 20:14:00,
2013-04-07 16:19:00,61.3,53.0,30.16,SE,132,0.0,0.0,74,0.00,,---,0.00,VWS V14.01,2013-04-07 20:19:00,
2013-04-07 16:30:00,59.1,51.5,30.22,East,81,0.0,0.0,76,0.00,,---,0.00,VWS V14.01,2013-04-07 20:30:00,
2013-04-07 16:59:00,60.1,52.5,30.17,North,0,0.0,0.0,76,0.00,,---,0.00,VWS V14.01,2013-04-07 20:59:00,
2013-04-07 17:00:00,59.2,51.3,30.21,East,90,0.0,0.0,75,0.00,,---,0.00,VWS V14.01,2013-04-07 21:00:00,
2013-04-07 17:04:00,61.0,53.0,30.15,ESE,102,0.0,0.0,75,0.00,,---,0.00,VWS V14.01,2013-04-07 21:04:00,
2013-04-07 17:09:00,61.2,53.2,30.15,ESE,117,0.0,0.0,75,0.00,,---,0.00,VWS V14.01,2013-04-07 21:09:00,
2013-04-07 17:14:00,61.2,53.2,30.15,SE,133,0.0,0.0,75,0.00,,---,0.00,VWS V14.01,2013-04-07 21:14:00,
2013-04-07 17:19:00,61.4,53.4,30.15,SE,130,0.0,0.0,75,0.00,,---,0.00,VWS V14.01,2013-04-07 21:19:00,
2013-04-07 17:24:00,61.2,52.9,30.15,SE,132,0.0,0.0,74,0.00,,---,0.00,VWS V14.01,2013-04-07 21:24:00,
2013-04-07 17:29:00,61.1,53.1,30.15,SE,124,0.0,0.0,75,0.00,,---,0.00,VWS V14.01,2013-04-07 21:29:00,
2013-04-07 17:30:00,59.4,51.8,30.19,East,88,0.0,0.0,76,0.00,,---,0.00,VWS V14.01,2013-04-07 21:30:00,
2013-04-07 17:35:00,61.1,53.1,30.15,SSE,148,0.0,0.0,75,0.00,,---,0.00,VWS V14.01,2013-04-07 21:35:00,
2013-04-07 17:40:00,60.9,52.6,30.15,SSE,157,0.0,0.0,74,0.00,,---,0.00,VWS V14.01,2013-04-07 21:40:00,
2013-04-07 17:45:00,60.8,52.8,30.14,SSE,156,0.0,0.0,75,0.00,,---,0.00,VWS V14.01,2013-04-07 21:45:00,
2013-04-07 17:50:00,60.8,52.8,30.15,SSE,148,0.0,0.0,75,0.00,,---,0.00,VWS V14.01,2013-04-07 21:50:00,
2013-04-07 17:55:00,60.7,52.7,30.15,SSE,153,0.0,0.0,75,0.00,,---,0.00,VWS V14.01,2013-04-07 21:55:00,
2013-04-07 18:00:00,60.8,52.8,30.15,SE,146,0.0,0.0,75,0.00,,---,0.00,VWS V14.01,2013-04-07 22:00:00,
2013-04-07 18:05:00,60.9,52.9,30.14,SSE,163,0.0,0.0,75,0.00,,---,0.00,VWS V14.01,2013-04-07 22:05:00,
2013-04-07 18:10:00,60.6,52.6,30.14,SSE,167,0.0,0.0,75,0.00,,---,0.00,VWS V14.01,2013-04-07 22:10:00,
2013-04-07 18:15:00,60.7,53.1,30.14,SE,134,0.0,0.0,76,0.00,,---,0.00,VWS V14.01,2013-04-07 22:15:00,
2013-04-07 18:20:00,60.5,52.9,30.14,SE,142,0.0,0.0,76,0.00,,---,0.00,VWS V14.01,2013-04-07 22:20:00,
2013-04-07 18:25:00,60.5,52.9,30.15,SE,142,0.0,0.0,76,0.00,,---,0.00,VWS V14.01,2013-04-07 22:25:00,
2013-04-07 18:30:00,60.6,53.4,30.15,South,191,0.0,0.0,77,0.00,,---,0.00,VWS V14.01,2013-04-07 22:30:00,
2013-04-07 18:35:00,60.5,53.3,30.15,South,186,0.0,0.0,77,0.00,,---,0.00,VWS V14.01,2013-04-07 22:35:00,
2013-04-07 18:40:00,60.7,53.8,30.15,South,188,0.0,0.0,78,0.00,,---,0.00,VWS V14.01,2013-04-07 22:40:00,
2013-04-07 18:45:00,60.9,53.7,30.14,South,190,0.0,0.0,77,0.00,,---,0.00,VWS V14.01,2013-04-07 22:45:00,
2013-04-07 18:50:00,60.9,54.0,30.14,South,190,0.0,0.0,78,0.00,,---,0.00,VWS V14.01,2013-04-07 22:50:00,
2013-04-07 18:55:00,61.1,54.2,30.14,South,190,0.0,0.0,78,0.00,,---,0.00,VWS V14.01,2013-04-07 22:55:00,
2013-04-07 19:00:00,61.0,54.1,30.14,South,190,0.0,0.0,78,0.00,,---,0.00,VWS V14.01,2013-04-07 23:00:00,
2013-04-07 19:05:00,61.0,54.1,30.14,South,190,0.0,0.0,78,0.00,,---,0.00,VWS V14.01,2013-04-07 23:05:00,
2013-04-07 19:10:00,60.9,54.0,30.14,South,190,0.0,0.0,78,0.00,,---,0.00,VWS V14.01,2013-04-07 23:10:00,
2013-04-07 19:15:00,60.9,54.0,30.14,South,190,0.0,0.0,78,0.00,,---,0.00,VWS V14.01,2013-04-07 23:15:00,
2013-04-07 19:20:00,60.8,53.9,30.14,South,190,0.0,0.0,78,0.00,,---,0.00,VWS V14.01,2013-04-07 23:20:00,
2013-04-07 19:25:00,60.8,53.9,30.14,South,190,0.0,0.0,78,0.00,,---,0.00,VWS V14.01,2013-04-07 23:25:00,
2013-04-07 19:30:00,60.8,53.9,30.14,South,190,0.0,0.0,78,0.00,,---,0.00,VWS V14.01,2013-04-07 23:30:00,
2013-04-07 19:35:00,60.8,53.9,30.14,South,190,0.0,0.0,78,0.00,,---,0.00,VWS V14.01,2013-04-07 23:35:00,
2013-04-07 19:40:00,60.8,54.3,30.14,South,190,0.0,0.0,79,0.00,,---,0.00,VWS V14.01,2013-04-07 23:40:00,
2013-04-07 19:45:00,60.8,54.3,30.14,South,190,0.0,0.0,79,0.00,,---,0.00,VWS V14.01,2013-04-07 23:45:00,
2013-04-07 19:50:00,60.7,54.2,30.14,South,190,0.0,0.0,79,0.00,,---,0.00,VWS V14.01,2013-04-07 23:50:00,
2013-04-07 19:55:00,60.6,54.1,30.14,SSW,193,0.0,0.0,79,0.00,,---,0.00,VWS V14.01,2013-04-07 23:55:00,
2013-04-07 20:00:00,60.4,53.9,30.14,SSW,193,0.0,0.0,79,0.00,,---,0.00,VWS V14.01,2013-04-08 00:00:00,
2013-04-07 20:05:00,60.3,53.8,30.14,SSW,193,0.0,0.0,79,0.00,,---,0.00,VWS V14.01,2013-04-08 00:05:00,
2013-04-07 20:10:00,60.1,53.6,30.14,SSW,193,0.0,0.0,79,0.00,,---,0.00,VWS V14.01,2013-04-08 00:10:00,
2013-04-07 20:15:00,59.9,53.4,30.14,SSW,193,0.0,0.0,79,0.00,,---,0.00,VWS V14.01,2013-04-08 00:15:00,
2013-04-07 20:20:00,59.8,53.3,30.14,SSW,193,0.0,0.0,79,0.00,,---,0.00,VWS V14.01,2013-04-08 00:20:00,
2013-04-07 20:25:00,59.7,53.2,30.15,SSW,193,0.0,0.0,79,0.00,,---,0.00,VWS V14.01,2013-04-08 00:25:00,
2013-04-07 20:30:00,59.5,53.3,30.14,SSW,193,0.0,0.0,80,0.00,,---,0.00,VWS V14.01,2013-04-08 00:30:00,
2013-04-07 20:35:00,59.3,52.8,30.15,SSW,193,0.0,0.0,79,0.00,,---,0.00,VWS V14.01,2013-04-08 00:35:00,
2013-04-07 20:40:00,59.2,53.0,30.15,SSW,193,0.0,0.0,80,0.00,,---,0.00,VWS V14.01,2013-04-08 00:40:00,
2013-04-07 20:45:00,59.0,52.8,30.15,SSW,193,0.0,0.0,80,0.00,,---,0.00,VWS V14.01,2013-04-08 00:45:00,
2013-04-07 20:50:00,58.9,52.8,30.15,SSW,193,0.0,0.0,80,0.00,,---,0.00,VWS V14.01,2013-04-08 00:50:00,
2013-04-07 20:55:00,58.9,52.8,30.15,SSW,193,0.0,0.0,80,0.00,,---,0.00,VWS V14.01,2013-04-08 00:55:00,
2013-04-07 21:00:00,58.8,52.7,30.15,SSW,193,0.0,0.0,80,0.00,,---,0.00,VWS V14.01,2013-04-08 01:00:00,
2013-04-07 21:05:00,58.8,52.7,30.15,SSW,193,0.0,0.0,80,0.00,,---,0.00,VWS V14.01,2013-04-08 01:05:00,
2013-04-07 21:10:00,58.7,52.6,30.15,SSW,193,0.0,0.0,80,0.00,,---,0.00,VWS V14.01,2013-04-08 01:10:00,
2013-04-07 21:15:00,58.6,52.8,30.15,SSW,193,0.0,0.0,81,0.00,,---,0.00,VWS V14.01,2013-04-08 01:15:00,
2013-04-07 21:20:00,58.5,52.7,30.16,SSW,193,0.0,0.0,81,0.00,,---,0.00,VWS V14.01,2013-04-08 01:20:00,
2013-04-07 21:25:00,58.5,52.7,30.16,SSW,193,0.0,0.0,81,0.00,,---,0.00,VWS V14.01,2013-04-08 01:25:00,
2013-04-07 21:30:00,58.5,52.7,30.16,SSW,193,0.0,0.0,81,0.00,,---,0.00,VWS V14.01,2013-04-08 01:30:00,
2013-04-07 21:35:00,58.5,52.7,30.16,SSW,193,0.0,0.0,81,0.00,,---,0.00,VWS V14.01,2013-04-08 01:35:00,
2013-04-07 21:40:00,58.5,52.7,30.16,SSW,193,0.0,0.0,81,0.00,,---,0.00,VWS V14.01,2013-04-08 01:40:00,
2013-04-07 21:45:00,58.4,52.6,30.16,SSW,193,0.0,0.0,81,0.00,,---,0.00,VWS V14.01,2013-04-08 01:45:00,
2013-04-07 21:50:00,58.5,53.0,30.16,SSW,193,0.0,0.0,82,0.00,,---,0.00,VWS V14.01,2013-04-08 01:50:00,
2013-04-07 21:55:00,58.5,53.0,30.16,SSW,193,0.0,0.0,82,0.00,,---,0.00,VWS V14.01,2013-04-08 01:55:00,
2013-04-07 22:00:00,58.5,53.0,30.17,SSW,193,0.0,0.0,82,0.00,,---,0.00,VWS V14.01,2013-04-08 02:00:00,
2013-04-07 22:05:00,58.6,53.1,30.17,SSW,193,0.0,0.0,82,0.00,,---,0.00,VWS V14.01,2013-04-08 02:05:00,
2013-04-07 22:10:00,58.6,53.1,30.17,SSW,193,0.0,0.0,82,0.00,,---,0.00,VWS V14.01,2013-04-08 02:10:00,
2013-04-07 22:15:00,58.5,53.0,30.17,SSW,193,0.0,0.0,82,0.00,,---,0.00,VWS V14.01,2013-04-08 02:15:00,
2013-04-07 22:20:00,58.4,52.9,30.17,SSW,193,0.0,0.0,82,0.00,,---,0.00,VWS V14.01,2013-04-08 02:20:00,
2013-04-07 22:25:00,58.3,52.8,30.17,SSW,193,0.0,0.0,82,0.00,,---,0.00,VWS V14.01,2013-04-08 02:25:00,
2013-04-07 22:30:00,58.2,52.7,30.16,SSW,193,0.0,0.0,82,0.00,,---,0.00,VWS V14.01,2013-04-08 02:30:00,
2013-04-07 22:35:00,58.2,52.7,30.16,SSW,193,0.0,0.0,82,0.00,,---,0.00,VWS V14.01,2013-04-08 02:35:00,
2013-04-07 22:40:00,58.1,52.6,30.16,SSW,193,0.0,0.0,82,0.00,,---,0.00,VWS V14.01,2013-04-08 02:40:00,
2013-04-07 22:45:00,58.2,52.7,30.16,SSW,193,0.0,0.0,82,0.00,,---,0.00,VWS V14.01,2013-04-08 02:45:00,
2013-04-07 22:50:00,58.4,52.9,30.17,SSW,193,0.0,0.0,82,0.00,,---,0.00,VWS V14.01,2013-04-08 02:50:00,
2013-04-07 22:55:00,58.4,52.9,30.16,SSW,193,0.0,0.0,82,0.00,,---,0.00,VWS V14.01,2013-04-08 02:55:00,
2013-04-07 23:00:00,58.4,52.9,30.16,SSW,193,0.0,0.0,82,0.00,,---,0.00,VWS V14.01,2013-04-08 03:00:00,
2013-04-07 23:06:00,58.6,53.1,30.16,SSW,192,0.0,0.0,82,0.00,,---,0.00,VWS V14.01,2013-04-08 03:06:00,
2013-04-07 23:11:00,59.2,54.0,30.16,SSW,196,0.0,0.0,83,0.00,,---,0.00,VWS V14.01,2013-04-08 03:11:00,
2013-04-07 23:16:00,59.4,54.2,30.16,SSW,196,0.0,0.0,83,0.00,,---,0.00,VWS V14.01,2013-04-08 03:16:00,
2013-04-07 23:21:00,59.5,54.3,30.16,SSW,194,0.0,0.0,83,0.00,,---,0.00,VWS V14.01,2013-04-08 03:21:00,
2013-04-07 23:26:00,59.6,54.4,30.16,SSW,194,0.0,0.0,83,0.00,,---,0.00,VWS V14.01,2013-04-08 03:26:00,
2013-04-07 23:30:00,59.5,53.3,30.14,SSW,193,0.0,0.0,80,0.00,,---,0.00,VWS V14.01,2013-04-08 03:30:00,
2013-04-07 23:31:00,59.6,54.1,30.16,SSW,194,0.0,0.0,82,0.00,,---,0.00,VWS V14.01,2013-04-08 03:31:00,
2013-04-07 23:37:00,59.5,54.0,30.16,SSW,194,0.0,0.0,82,0.00,,---,0.00,VWS V14.01,2013-04-08 03:37:00,
2013-04-07 23:42:00,59.5,54.0,30.16,SSW,194,0.0,0.0,82,0.00,,---,0.00,VWS V14.01,2013-04-08 03:42:00,
2013-04-07 23:47:00,59.5,54.0,30.16,SSW,194,0.0,0.0,82,0.00,,---,0.00,VWS V14.01,2013-04-08 03:47:00,
2013-04-07 23:52:00,59.8,54.6,30.16,SSW,211,0.0,0.0,83,0.00,,---,0.00,VWS V14.01,2013-04-08 03:52:00,
2013-04-07 23:57:00,60.0,54.5,30.15,SSW,213,0.0,0.0,82,0.00,,---,0.00,VWS V14.01,2013-04-08 03:57:00,